{"data":{"norad_id":47745,"epoch":"2026-05-24T21:10:45.524640Z","epoch_age_seconds":84415,"freshness":"FRESH","line1":"1 47745U 21017Z   26144.88247135  .00047768  00000+0  69106-3 0  9999","line2":"2 47745  53.1546 199.5904 0006929 353.2198   6.8719 15.55434139289658","mean_motion":15.55434139,"eccentricity":0.0006929,"inclination_deg":53.1546,"raan_deg":199.5904,"arg_perigee_deg":353.2198,"mean_anomaly_deg":6.8719,"bstar":0.00069106,"rev_number":28965,"period_min":92.57865465945,"perigee_km":396.19374595984,"apogee_km":405.58812287136,"semimajor_km":6779.0279344156,"source":"CELESTRAK","updated_at":"2026-05-25T13:38:16.566533Z"}}